| time (UTC) | temp C | wind direction | speed KPH | gust KPH | rain 1hr cm | rain 24hr cm | rain mn cm | humidity % | barometer mb |
| 20260507060126 | 7 | 40 | 4.8 | 11.3 | 0.00 | 0.58 | 0.00 | 90 | 1013.6 |
| 20260507055626 | 7 | 31 | 3.2 | 9.7 | 0.00 | 0.58 | 0.00 | 91 | 1013.5 |
| 20260507055127 | 7 | 357 | 4.8 | 11.3 | 0.00 | 0.58 | 0.00 | 91 | 1013.5 |
| 20260507054620 | 7 | 20 | 4.8 | 12.9 | 0.00 | 0.58 | 0.00 | 91 | 1013.4 |
| 20260507054115 | 7 | 26 | 4.8 | 12.9 | 0.00 | 0.58 | 0.00 | 91 | 1013.4 |
| 20260507053616 | 7 | 7 | 3.2 | 11.3 | 0.00 | 0.58 | 0.00 | 91 | 1013.4 |
| 20260507053114 | 7 | 12 | 3.2 | 9.7 | 0.00 | 0.58 | 0.00 | 91 | 1013.3 |
| 20260507051615 | 6 | 12 | 3.2 | 11.3 | 0.00 | 0.58 | 0.00 | 92 | 1013.2 |
| 20260507051113 | 6 | 346 | 3.2 | 6.4 | 0.00 | 0.58 | 0.00 | 92 | 1013.1 |
| 20260507050613 | 6 | 341 | 3.2 | 8.0 | 0.00 | 0.58 | 0.00 | 92 | 1013.1 |
| 20260507050115 | 6 | 339 | 3.2 | 11.3 | 0.00 | 0.58 | 0.00 | 92 | 1013.0 |
| 20260507045613 | 6 | 338 | 3.2 | 11.3 | 0.00 | 0.58 | 0.00 | 92 | 1012.9 |
| 20260507045114 | 6 | 358 | 3.2 | 9.7 | 0.00 | 0.58 | 0.00 | 92 | 1012.8 |
| 20260507044614 | 6 | 351 | 3.2 | 9.7 | 0.00 | 0.58 | 0.00 | 92 | 1012.8 |
| 20260507044114 | 6 | 1 | 3.2 | 6.4 | 0.00 | 0.58 | 0.00 | 92 | 1012.7 |
| 20260507043613 | 6 | 357 | 3.2 | 6.4 | 0.00 | 0.58 | 0.00 | 92 | 1012.7 |
| 20260507042612 | 5 | 359 | 1.6 | 4.8 | 0.00 | 0.58 | 0.00 | 93 | 1012.7 |
| 20260507042114 | 5 | 359 | 0.0 | 3.2 | 0.00 | 0.58 | 0.00 | 93 | 1012.6 |
| 20260507041612 | 5 | 359 | 0.0 | 1.6 | 0.00 | 0.58 | 0.00 | 92 | 1012.6 |
| 20260507041114 | 5 | 359 | 0.0 | 1.6 | 0.00 | 0.58 | 0.00 | 93 | 1012.5 |
| 20260507040613 | 5 | 358 | 0.0 | 1.6 | 0.00 | 0.58 | 0.00 | 93 | 1012.5 |
| 20260507040116 | 5 | 358 | 0.0 | 3.2 | 0.00 | 0.58 | 0.00 | 92 | 1012.5 |
| 20260507035614 | 5 | 358 | 0.0 | 3.2 | 0.00 | 0.58 | 0.00 | 92 | 1012.5 |
| 20260507034611 | 5 | 358 | 0.0 | 1.6 | 0.00 | 0.58 | 0.00 | 92 | 1012.3 |
| 20260507034109 | 5 | 358 | 0.0 | 1.6 | 0.00 | 0.58 | 0.00 | 92 | 1012.3 |
| 20260507033610 | 5 | 358 | 0.0 | 3.2 | 0.00 | 0.58 | 0.00 | 92 | 1012.3 |
| 20260507033108 | 4 | 358 | 0.0 | 3.2 | 0.00 | 0.58 | 0.00 | 92 | 1012.3 |
| 20260507032614 | 4 | 358 | 0.0 | 1.6 | 0.00 | 0.58 | 0.00 | 92 | 1012.3 |
| 20260507032108 | 4 | 358 | 0.0 | 3.2 | 0.00 | 0.58 | 0.00 | 92 | 1012.2 |
| 20260507031605 | 4 | 358 | 0.0 | 3.2 | 0.00 | 0.58 | 0.00 | 91 | 1012.1 |
| 20260507031106 | 4 | 358 | 1.6 | 3.2 | 0.00 | 0.58 | 0.00 | 91 | 1012.0 |
| 20260507030604 | 4 | 359 | 0.0 | 3.2 | 0.00 | 0.58 | 0.00 | 91 | 1012.0 |
| 20260507030112 | 4 | 358 | 0.0 | 3.2 | 0.00 | 0.58 | 0.00 | 91 | 1012.0 |
| 20260507025559 | 5 | 358 | 0.0 | 3.2 | 0.00 | 0.58 | 0.00 | 90 | 1011.9 |
| 20260507025051 | 5 | 358 | 0.0 | 3.2 | 0.00 | 0.58 | 0.00 | 90 | 1011.9 |
| 20260507024547 | 5 | 358 | 0.0 | 3.2 | 0.00 | 0.58 | 0.00 | 90 | 1011.9 |
| 20260507024041 | 5 | 358 | 0.0 | 3.2 | 0.00 | 0.58 | 0.00 | 90 | 1011.9 |
| 20260507023533 | 5 | 358 | 0.0 | 3.2 | 0.00 | 0.58 | 0.00 | 90 | 1011.8 |
| 20260507023027 | 5 | 358 | 0.0 | 1.6 | 0.00 | 0.58 | 0.00 | 89 | 1011.9 |
| 20260507022520 | 5 | 358 | 0.0 | 3.2 | 0.00 | 0.58 | 0.00 | 90 | 1011.8 |
| 20260507022014 | 5 | 358 | 0.0 | 4.8 | 0.00 | 0.58 | 0.00 | 90 | 1011.8 |
| 20260507021508 | 5 | 359 | 0.0 | 4.8 | 0.00 | 0.58 | 0.00 | 90 | 1011.7 |
| 20260507021002 | 5 | 358 | 1.6 | 4.8 | 0.00 | 0.58 | 0.00 | 89 | 1011.7 |
| 20260507020456 | 5 | 357 | 1.6 | 4.8 | 0.00 | 0.58 | 0.00 | 90 | 1011.7 |
| 20260507015950 | 5 | 357 | 1.6 | 4.8 | 0.00 | 0.58 | 0.00 | 89 | 1011.7 |
| 20260507015444 | 5 | 357 | 1.6 | 4.8 | 0.00 | 0.58 | 0.00 | 89 | 1011.6 |
| 20260507014432 | 6 | 357 | 1.6 | 4.8 | 0.00 | 0.58 | 0.00 | 89 | 1011.5 |
| 20260507013421 | 6 | 357 | 1.6 | 4.8 | 0.00 | 0.58 | 0.00 | 89 | 1011.5 |
| 20260507012914 | 6 | 357 | 0.0 | 3.2 | 0.00 | 0.58 | 0.00 | 89 | 1011.5 |
| 20260507012408 | 6 | 357 | 1.6 | 3.2 | 0.00 | 0.58 | 0.00 | 89 | 1011.5 |
| 20260507011902 | 6 | 357 | 1.6 | 3.2 | 0.00 | 0.58 | 0.00 | 89 | 1011.5 |
| 20260507011357 | 6 | 357 | 1.6 | 4.8 | 0.00 | 0.58 | 0.00 | 89 | 1011.4 |
| 20260507010345 | 6 | 356 | 0.0 | 3.2 | 0.00 | 0.58 | 0.00 | 89 | 1011.3 |
| 20260507005839 | 6 | 356 | 0.0 | 3.2 | 0.00 | 0.58 | 0.00 | 89 | 1011.3 |
| 20260507004834 | 7 | 356 | 0.0 | 3.2 | 0.00 | 0.58 | 0.00 | 88 | 1011.3 |
| 20260507004335 | 7 | 356 | 0.0 | 3.2 | 0.00 | 0.58 | 0.00 | 88 | 1011.2 |
| 20260507003834 | 7 | 356 | 0.0 | 3.2 | 0.00 | 0.58 | 0.00 | 88 | 1011.2 |
| 20260507003335 | 7 | 356 | 1.6 | 4.8 | 0.00 | 0.58 | 0.00 | 88 | 1011.2 |
| 20260507002834 | 7 | 356 | 1.6 | 4.8 | 0.00 | 0.58 | 0.00 | 88 | 1011.2 |
| 20260507002333 | 7 | 354 | 1.6 | 4.8 | 0.00 | 0.58 | 0.00 | 88 | 1011.1 |
| 20260507001831 | 7 | 354 | 1.6 | 6.4 | 0.00 | 0.58 | 0.00 | 88 | 1011.1 |
| 20260507000830 | 8 | 354 | 3.2 | 11.3 | 0.00 | 0.58 | 0.00 | 88 | 1011.0 |
| 20260507000332 | 8 | 355 | 3.2 | 11.3 | 0.00 | 0.58 | 0.00 | 89 | 1010.9 |
| 20260506235833 | 8 | 357 | 3.2 | 6.4 | 0.00 | 0.58 | 0.00 | 89 | 1010.9 |
| 20260506235331 | 8 | 352 | 3.2 | 9.7 | 0.00 | 0.58 | 0.00 | 89 | 1011.0 |
| 20260506234831 | 8 | 345 | 3.2 | 9.7 | 0.00 | 0.58 | 0.00 | 89 | 1010.9 |
| 20260506234329 | 8 | 355 | 3.2 | 8.0 | 0.00 | 0.58 | 0.00 | 89 | 1010.9 |
| 20260506233826 | 8 | 348 | 3.2 | 8.0 | 0.00 | 0.58 | 0.00 | 89 | 1010.8 |
| 20260506233328 | 8 | 330 | 3.2 | 9.7 | 0.00 | 0.58 | 0.00 | 89 | 1010.8 |
| 20260506232828 | 8 | 340 | 3.2 | 11.3 | 0.00 | 0.58 | 0.00 | 89 | 1010.8 |
| 20260506232325 | 8 | 338 | 3.2 | 11.3 | 0.00 | 0.58 | 0.00 | 89 | 1010.9 |
| 20260506231826 | 8 | 341 | 1.6 | 6.4 | 0.00 | 0.58 | 0.00 | 89 | 1010.9 |
| 20260506231332 | 8 | 341 | 1.6 | 6.4 | 0.00 | 0.58 | 0.00 | 89 | 1010.8 |
| 20260506230825 | 8 | 327 | 1.6 | 6.4 | 0.00 | 0.58 | 0.00 | 89 | 1010.8 |
| 20260506230325 | 8 | 325 | 3.2 | 9.7 | 0.00 | 0.58 | 0.00 | 89 | 1010.8 |
| 20260506225825 | 8 | 325 | 3.2 | 9.7 | 0.00 | 0.58 | 0.00 | 89 | 1010.7 |
| 20260506225326 | 8 | 333 | 3.2 | 6.4 | 0.00 | 0.58 | 0.00 | 89 | 1010.8 |
| 20260506224822 | 8 | 316 | 3.2 | 8.0 | 0.00 | 0.58 | 0.00 | 89 | 1010.7 |
| 20260506224320 | 8 | 311 | 3.2 | 8.0 | 0.00 | 0.58 | 0.00 | 89 | 1010.8 |
| 20260506223821 | 8 | 320 | 3.2 | 8.0 | 0.00 | 0.58 | 0.00 | 89 | 1010.8 |
| 20260506223321 | 9 | 320 | 1.6 | 6.4 | 0.00 | 0.58 | 0.00 | 89 | 1010.8 |
| 20260506222820 | 9 | 314 | 1.6 | 6.4 | 0.00 | 0.58 | 0.00 | 89 | 1010.7 |
| 20260506222319 | 9 | 315 | 3.2 | 6.4 | 0.00 | 0.58 | 0.00 | 89 | 1010.7 |
| 20260506221320 | 9 | 311 | 3.2 | 6.4 | 0.00 | 0.58 | 0.00 | 89 | 1010.7 |
| 20260506220820 | 9 | 305 | 3.2 | 8.0 | 0.00 | 0.58 | 0.00 | 89 | 1010.7 |
| 20260506220320 | 9 | 323 | 3.2 | 8.0 | 0.00 | 0.58 | 0.00 | 89 | 1010.8 |
| 20260506215821 | 9 | 323 | 3.2 | 6.4 | 0.00 | 0.58 | 0.58 | 89 | 1010.8 |
| 20260506215321 | 9 | 314 | 1.6 | 6.4 | 0.00 | 0.58 | 0.58 | 89 | 1010.7 |
| 20260506214321 | 9 | 326 | 1.6 | 4.8 | 0.00 | 0.58 | 0.58 | 89 | 1010.6 |
| 20260506213821 | 9 | 327 | 1.6 | 6.4 | 0.00 | 0.58 | 0.58 | 89 | 1010.6 |
| 20260506213318 | 9 | 326 | 1.6 | 6.4 | 0.00 | 0.58 | 0.58 | 89 | 1010.5 |
| 20260506212318 | 9 | 333 | 3.2 | 8.0 | 0.00 | 0.58 | 0.58 | 89 | 1010.4 |
| 20260506211817 | 9 | 311 | 1.6 | 6.4 | 0.00 | 0.58 | 0.58 | 89 | 1010.4 |
| 20260506210817 | 9 | 346 | 1.6 | 4.8 | 0.00 | 0.58 | 0.58 | 89 | 1010.3 |
| 20260506205817 | 9 | 347 | 0.0 | 3.2 | 0.00 | 0.58 | 0.58 | 89 | 1010.3 |
| 20260506205316 | 9 | 347 | 0.0 | 3.2 | 0.00 | 0.58 | 0.58 | 89 | 1010.3 |
| 20260506204813 | 9 | 347 | 0.0 | 0.0 | 0.00 | 0.58 | 0.58 | 89 | 1010.3 |
| 20260506204313 | 9 | 347 | 0.0 | 1.6 | 0.00 | 0.58 | 0.58 | 89 | 1010.2 |
| 20260506203814 | 8 | 347 | 0.0 | 1.6 | 0.00 | 0.58 | 0.58 | 88 | 1010.2 |
| 20260506203316 | 8 | 347 | 0.0 | 3.2 | 0.00 | 0.58 | 0.58 | 87 | 1010.2 |
| 20260506202812 | 8 | 347 | 1.6 | 3.2 | 0.00 | 0.58 | 0.58 | 87 | 1010.2 |
| 20260506202311 | 9 | 347 | 1.6 | 3.2 | 0.00 | 0.58 | 0.58 | 87 | 1010.2 |
| 20260506201810 | 9 | 347 | 0.0 | 3.2 | 0.00 | 0.58 | 0.58 | 87 | 1010.2 |
| 20260506200810 | 9 | 347 | 1.6 | 3.2 | 0.00 | 0.58 | 0.58 | 87 | 1010.2 |
| 20260506200311 | 9 | 347 | 1.6 | 3.2 | 0.00 | 0.58 | 0.58 | 87 | 1010.2 |
| 20260506195811 | 9 | 347 | 1.6 | 3.2 | 0.00 | 0.58 | 0.58 | 87 | 1010.2 |
| 20260506195311 | 9 | 347 | 1.6 | 3.2 | 0.00 | 0.58 | 0.58 | 87 | 1010.2 |
| 20260506194810 | 9 | 347 | 1.6 | 3.2 | 0.00 | 0.58 | 0.58 | 87 | 1010.2 |
| 20260506193811 | 9 | 347 | 0.0 | 1.6 | 0.00 | 0.58 | 0.58 | 86 | 1010.2 |
| 20260506193310 | 9 | 347 | 0.0 | 1.6 | 0.00 | 0.58 | 0.58 | 86 | 1010.2 |
| 20260506192812 | 9 | 347 | 0.0 | 1.6 | 0.00 | 0.58 | 0.58 | 86 | 1010.1 |
| 20260506192309 | 9 | 347 | 0.0 | 1.6 | 0.00 | 0.58 | 0.58 | 86 | 1010.0 |
| 20260506191808 | 9 | 347 | 0.0 | 1.6 | 0.00 | 0.58 | 0.58 | 86 | 1010.0 |
| 20260506191309 | 9 | 347 | 0.0 | 1.6 | 0.00 | 0.58 | 0.58 | 86 | 1009.9 |
| 20260506190806 | 9 | 347 | 0.0 | 1.6 | 0.00 | 0.58 | 0.58 | 86 | 1009.9 |
| 20260506184800 | 9 | 347 | 1.6 | 4.8 | 0.03 | 0.58 | 0.58 | 86 | 1009.7 |
| 20260506184301 | 9 | 347 | 1.6 | 4.8 | 0.03 | 0.58 | 0.58 | 86 | 1009.6 |
| 20260506183759 | 9 | 347 | 0.0 | 3.2 | 0.03 | 0.58 | 0.58 | 86 | 1009.6 |
| 20260506183259 | 9 | 347 | 1.6 | 3.2 | 0.03 | 0.58 | 0.58 | 86 | 1009.5 |
| 20260506182753 | 9 | 347 | 1.6 | 3.2 | 0.03 | 0.58 | 0.58 | 86 | 1009.5 |
| 20260506181741 | 9 | 347 | 1.6 | 3.2 | 0.03 | 0.58 | 0.58 | 86 | 1009.5 |
| 20260506181235 | 9 | 347 | 1.6 | 4.8 | 0.03 | 0.58 | 0.58 | 86 | 1009.5 |
| 20260506180730 | 9 | 347 | 1.6 | 4.8 | 0.03 | 0.58 | 0.58 | 86 | 1009.5 |
| 20260506180223 | 9 | 347 | 1.6 | 6.4 | 0.05 | 0.58 | 0.58 | 86 | 1009.4 |
| 20260506175717 | 9 | 347 | 3.2 | 6.4 | 0.05 | 0.58 | 0.58 | 85 | 1009.3 |
| 20260506174200 | 9 | 11 | 1.6 | 9.7 | 0.03 | 0.56 | 0.56 | 86 | 1009.3 |
| 20260506173653 | 9 | 13 | 3.2 | 9.7 | 0.03 | 0.56 | 0.56 | 85 | 1009.2 |
| 20260506173147 | 9 | 336 | 3.2 | 8.0 | 0.03 | 0.56 | 0.56 | 85 | 1009.2 |
| 20260506172642 | 9 | 17 | 3.2 | 8.0 | 0.03 | 0.56 | 0.56 | 85 | 1009.2 |
| 20260506172135 | 9 | 58 | 3.2 | 11.3 | 0.05 | 0.56 | 0.56 | 85 | 1009.1 |
| 20260506171124 | 9 | 61 | 1.6 | 8.0 | 0.05 | 0.56 | 0.56 | 86 | 1009.0 |
| 20260506170617 | 9 | 57 | 1.6 | 4.8 | 0.03 | 0.53 | 0.56 | 86 | 1009.0 |
| 20260506170112 | 9 | 57 | 1.6 | 4.8 | 0.05 | 0.53 | 0.53 | 86 | 1009.0 |
| 20260506165059 | 9 | 51 | 1.6 | 8.0 | 0.05 | 0.53 | 0.53 | 86 | 1009.0 |
| 20260506164558 | 9 | 43 | 0.0 | 3.2 | 0.05 | 0.53 | 0.53 | 86 | 1009.1 |
| 20260506164044 | 9 | 43 | 1.6 | 4.8 | 0.05 | 0.53 | 0.53 | 86 | 1009.0 |
| 20260506163537 | 9 | 40 | 1.6 | 4.8 | 0.05 | 0.53 | 0.53 | 86 | 1009.0 |
| 20260506163031 | 9 | 37 | 1.6 | 4.8 | 0.05 | 0.53 | 0.53 | 86 | 1009.0 |
| 20260506162020 | 9 | 37 | 3.2 | 6.4 | 0.05 | 0.51 | 0.51 | 86 | 1009.0 |
| 20260506161008 | 9 | 37 | 1.6 | 4.8 | 0.08 | 0.51 | 0.51 | 86 | 1009.0 |
| 20260506160501 | 9 | 38 | 1.6 | 6.4 | 0.08 | 0.51 | 0.51 | 86 | 1009.0 |
| 20260506155956 | 9 | 38 | 3.2 | 6.4 | 0.08 | 0.51 | 0.51 | 85 | 1009.1 |
| 20260506155450 | 9 | 24 | 3.2 | 9.7 | 0.08 | 0.51 | 0.51 | 85 | 1009.1 |
| 20260506154948 | 9 | 22 | 4.8 | 9.7 | 0.08 | 0.51 | 0.51 | 84 | 1009.1 |
| 20260506152945 | 9 | 10 | 3.2 | 9.7 | 0.08 | 0.46 | 0.48 | 84 | 1009.1 |
| 20260506152445 | 9 | 16 | 3.2 | 9.7 | 0.08 | 0.46 | 0.46 | 84 | 1009.1 |
| 20260506151945 | 9 | 16 | 4.8 | 11.3 | 0.08 | 0.46 | 0.46 | 84 | 1009.1 |
| 20260506151446 | 9 | 34 | 3.2 | 11.3 | 0.08 | 0.43 | 0.43 | 84 | 1009.1 |
| 20260506150946 | 9 | 25 | 4.8 | 11.3 | 0.10 | 0.43 | 0.43 | 83 | 1009.2 |
| 20260506150445 | 9 | 352 | 6.4 | 11.3 | 0.10 | 0.43 | 0.43 | 83 | 1009.1 |
| 20260506145945 | 9 | 26 | 6.4 | 12.9 | 0.10 | 0.43 | 0.43 | 83 | 1009.1 |
| 20260506145446 | 9 | 6 | 4.8 | 12.9 | 0.10 | 0.43 | 0.43 | 83 | 1009.0 |
| 20260506144946 | 9 | 37 | 4.8 | 12.9 | 0.13 | 0.43 | 0.43 | 83 | 1009.1 |
| 20260506144446 | 8 | 42 | 6.4 | 16.1 | 0.13 | 0.41 | 0.41 | 82 | 1009.1 |
| 20260506143445 | 8 | 23 | 6.4 | 14.5 | 0.15 | 0.41 | 0.41 | 82 | 1009.0 |
| 20260506142945 | 8 | 10 | 6.4 | 14.5 | 0.13 | 0.38 | 0.38 | 83 | 1009.0 |
| 20260506142446 | 8 | 23 | 6.4 | 12.9 | 0.15 | 0.38 | 0.38 | 83 | 1009.0 |
| 20260506141946 | 8 | 41 | 4.8 | 12.9 | 0.15 | 0.38 | 0.38 | 83 | 1009.0 |
| 20260506141447 | 8 | 15 | 6.4 | 12.9 | 0.15 | 0.36 | 0.36 | 83 | 1008.9 |
| 20260506140944 | 8 | 14 | 6.4 | 12.9 | 0.13 | 0.33 | 0.33 | 83 | 1009.0 |
| 20260506135945 | 8 | 24 | 4.8 | 12.9 | 0.13 | 0.33 | 0.33 | 83 | 1009.0 |
| 20260506135448 | 8 | 11 | 4.8 | 12.9 | 0.13 | 0.33 | 0.33 | 83 | 1009.0 |
| 20260506134942 | 8 | 19 | 3.2 | 12.9 | 0.10 | 0.30 | 0.30 | 83 | 1009.0 |
| 20260506134441 | 8 | 5 | 3.2 | 11.3 | 0.10 | 0.28 | 0.30 | 83 | 1009.0 |
| 20260506133940 | 8 | 33 | 4.8 | 11.3 | 0.10 | 0.28 | 0.28 | 82 | 1009.0 |
| 20260506133442 | 8 | 32 | 6.4 | 12.9 | 0.10 | 0.25 | 0.25 | 82 | 1009.1 |
| 20260506132943 | 8 | 21 | 8.0 | 16.1 | 0.10 | 0.25 | 0.25 | 82 | 1009.1 |
| 20260506131940 | 8 | 13 | 6.4 | 16.1 | 0.13 | 0.23 | 0.23 | 81 | 1009.0 |
| 20260506131441 | 8 | 50 | 6.4 | 17.7 | 0.10 | 0.23 | 0.23 | 81 | 1009.0 |
| 20260506130944 | 8 | 20 | 8.0 | 17.7 | 0.13 | 0.23 | 0.23 | 80 | 1008.9 |
| 20260506130441 | 8 | 352 | 6.4 | 17.7 | 0.13 | 0.23 | 0.23 | 80 | 1008.9 |
| 20260506125938 | 8 | 23 | 6.4 | 17.7 | 0.13 | 0.20 | 0.20 | 80 | 1008.9 |
| 20260506125439 | 8 | 21 | 8.0 | 17.7 | 0.13 | 0.20 | 0.20 | 80 | 1008.9 |
| 20260506124938 | 8 | 24 | 8.0 | 17.7 | 0.13 | 0.20 | 0.20 | 80 | 1008.9 |
| 20260506124436 | 8 | 33 | 9.7 | 19.3 | 0.13 | 0.18 | 0.18 | 79 | 1008.8 |
| 20260506123435 | 8 | 37 | 9.7 | 16.1 | 0.13 | 0.15 | 0.18 | 79 | 1008.8 |
| 20260506122434 | 8 | 39 | 6.4 | 19.3 | 0.10 | 0.15 | 0.15 | 80 | 1008.8 |
| 20260506121935 | 8 | 13 | 6.4 | 12.9 | 0.08 | 0.13 | 0.15 | 80 | 1008.8 |
| 20260506121435 | 8 | 24 | 6.4 | 14.5 | 0.10 | 0.13 | 0.13 | 80 | 1008.8 |
| 20260506115433 | 8 | 32 | 11.3 | 17.7 | 0.05 | 0.08 | 0.08 | 77 | 1008.6 |
| 20260506114933 | 8 | 66 | 9.7 | 20.9 | 0.08 | 0.08 | 0.08 | 77 | 1008.6 |
| 20260506114428 | 8 | 41 | 9.7 | 20.9 | 0.05 | 0.05 | 0.05 | 77 | 1008.5 |
| 20260506113930 | 8 | 41 | 8.0 | 19.3 | 0.05 | 0.05 | 0.05 | 77 | 1008.5 |
| 20260506113416 | 8 | 33 | 8.0 | 17.7 | 0.05 | 0.05 | 0.05 | 77 | 1008.6 |
| 20260506112910 | 9 | 41 | 8.0 | 17.7 | 0.05 | 0.05 | 0.05 | 76 | 1008.5 |
| 20260506112403 | 9 | 12 | 8.0 | 17.7 | 0.05 | 0.05 | 0.05 | 77 | 1008.5 |
| 20260506111857 | 9 | 40 | 9.7 | 19.3 | 0.05 | 0.05 | 0.05 | 76 | 1008.5 |
| 20260506110847 | 9 | 45 | 8.0 | 16.1 | 0.03 | 0.03 | 0.03 | 75 | 1008.4 |
| 20260506105328 | 9 | 60 | 8.0 | 19.3 | 0.03 | 0.03 | 0.03 | 73 | 1008.4 |
| 20260506104823 | 9 | 39 | 9.7 | 19.3 | 0.00 | 0.00 | 0.00 | 73 | 1008.4 |
| 20260506104316 | 9 | 32 | 11.3 | 24.1 | 0.00 | 0.00 | 0.00 | 71 | 1008.4 |
| 20260506103810 | 9 | 36 | 12.9 | 25.7 | 0.00 | 0.00 | 0.00 | 71 | 1008.4 |
| 20260506102759 | 10 | 53 | 11.3 | 22.5 | 0.00 | 0.00 | 0.00 | 73 | 1008.4 |
| 20260506102252 | 10 | 354 | 14.5 | 24.1 | 0.00 | 0.00 | 0.00 | 71 | 1008.3 |
| 20260506101746 | 10 | 53 | 12.9 | 22.5 | 0.00 | 0.00 | 0.00 | 70 | 1008.3 |
| 20260506101240 | 10 | 28 | 12.9 | 25.7 | 0.00 | 0.00 | 0.00 | 70 | 1008.2 |
| 20260506100734 | 10 | 42 | 11.3 | 25.7 | 0.00 | 0.00 | 0.00 | 70 | 1008.2 |
| 20260506100228 | 10 | 8 | 11.3 | 25.7 | 0.00 | 0.00 | 0.00 | 69 | 1008.1 |
| 20260506095722 | 10 | 10 | 11.3 | 25.7 | 0.00 | 0.00 | 0.00 | 69 | 1008.1 |
| 20260506095217 | 10 | 3 | 12.9 | 25.7 | 0.00 | 0.00 | 0.00 | 70 | 1008.1 |
| 20260506094710 | 10 | 35 | 11.3 | 20.9 | 0.00 | 0.00 | 0.00 | 69 | 1008.1 |
| 20260506093659 | 10 | 29 | 11.3 | 22.5 | 0.00 | 0.00 | 0.00 | 66 | 1008.0 |
| 20260506093153 | 10 | 39 | 11.3 | 27.4 | 0.00 | 0.00 | 0.00 | 65 | 1008.1 |
| 20260506092649 | 10 | 28 | 9.7 | 27.4 | 0.00 | 0.00 | 0.00 | 64 | 1008.0 |
| 20260506092140 | 10 | 25 | 9.7 | 20.9 | 0.00 | 0.00 | 0.00 | 65 | 1008.0 |
| 20260506091635 | 10 | 30 | 9.7 | 22.5 | 0.00 | 0.00 | 0.00 | 64 | 1008.0 |
| 20260506091129 | 10 | 31 | 9.7 | 22.5 | 0.00 | 0.00 | 0.00 | 64 | 1008.0 |
| 20260506090623 | 10 | 10 | 9.7 | 19.3 | 0.00 | 0.00 | 0.00 | 64 | 1007.9 |
| 20260506090125 | 10 | 38 | 9.7 | 20.9 | 0.00 | 0.00 | 0.00 | 65 | 1008.0 |
| 20260506085610 | 10 | 44 | 9.7 | 20.9 | 0.00 | 0.00 | 0.00 | 65 | 1007.9 |
| 20260506085104 | 10 | 18 | 9.7 | 20.9 | 0.00 | 0.00 | 0.00 | 65 | 1008.0 |
| 20260506084558 | 10 | 9 | 9.7 | 20.9 | 0.00 | 0.00 | 0.00 | 66 | 1008.0 |
| 20260506084052 | 10 | 41 | 9.7 | 17.7 | 0.00 | 0.00 | 0.00 | 66 | 1007.9 |
| 20260506083040 | 10 | 355 | 12.9 | 22.5 | 0.00 | 0.00 | 0.00 | 65 | 1007.8 |
| 20260506082534 | 10 | 26 | 11.3 | 22.5 | 0.00 | 0.00 | 0.00 | 65 | 1007.8 |
| 20260506082029 | 10 | 69 | 11.3 | 20.9 | 0.00 | 0.00 | 0.00 | 65 | 1007.7 |
| 20260506081530 | 10 | 43 | 11.3 | 20.9 | 0.00 | 0.00 | 0.00 | 65 | 1007.7 |
| 20260506081030 | 10 | 53 | 9.7 | 22.5 | 0.00 | 0.00 | 0.00 | 65 | 1007.5 |
| 20260506080530 | 10 | 23 | 9.7 | 22.5 | 0.00 | 0.00 | 0.00 | 65 | 1007.5 |
| 20260506073030 | 10 | 56 | 9.7 | 22.5 | 0.00 | 0.00 | 0.00 | 70 | 1007.3 |
| 20260506072524 | 10 | 31 | 11.3 | 24.1 | 0.00 | 0.00 | 0.00 | 70 | 1007.3 |
| 20260506072023 | 10 | 10 | 11.3 | 24.1 | 0.00 | 0.00 | 0.00 | 70 | 1007.3 |
| 20260506071524 | 9 | 7 | 9.7 | 22.5 | 0.00 | 0.00 | 0.00 | 71 | 1007.3 |
| 20260506071023 | 9 | 18 | 9.7 | 22.5 | 0.00 | 0.00 | 0.00 | 72 | 1007.3 |
| 20260506070523 | 9 | 43 | 9.7 | 20.9 | 0.00 | 0.00 | 0.00 | 73 | 1007.3 |
| 20260506062019 | 9 | 3 | 6.4 | 17.7 | 0.00 | 0.00 | 0.00 | 77 | 1007.2 |
| 20260506061019 | 8 | 33 | 8.0 | 16.1 | 0.00 | 0.00 | 0.00 | 77 | 1007.2 |